Regional Weather Roundup
Issued by NWS Sterling, VA

Home | Current Version | Previous Version | Graphics & Text | Print | Product List | Glossary On
Versions: 1 2 3 4 5 6 7 8 9 10 11 12 13 14 15 16 17 18 19 20 21 22 23 24 25 26 27
000
ASUS41 KLWX 250310
RWRLWX

REGIONAL WEATHER ROUNDUP
NATIONAL WEATHER SERVICE BALTIMORE MD/WASHINGTON DC
1100 PM EDT SUN SEP 24 2017

Note: "FAIR" indicates few or no clouds below 12,000 feet
with no significant weather and/or obstructions to visibility.
 TC=TEMPERATURE CELSIUS

 * =Non NWS site. Station does not report precipitation (e.g. rain,
    snow, etc.), thunder, or fog.

DCZ001-MDZ009-015-VAZ040>042-051-053>054-250400-
WASHINGTON METRO

CITY           SKY/WX    TMP DP  RH WIND       PRES   REMARKS
WASHINGTON NAT PTCLDY    78  71  79 CALM      30.05S
DULLES         CLEAR     69  66  90 CALM      30.06S
ANDREWS AFB    CLEAR     68  65  90 CALM      30.04F
FT BELVOIR     CLEAR     69  66  92 CALM      30.05S
QUANTICO       CLEAR     72  70  93 NW7       30.05F
COLLEGE PARK*  CLEAR     68  66  93 CALM      30.04F
LEESBURG*      CLEAR     70  70 100 CALM      30.08S
MANASSAS*      CLEAR     67  65  93 CALM      30.06F
GAITHERSBURG*  CLEAR     67  65  93 CALM      30.08S

$$

MDZ006>007-011-014-250400-
BALTIMORE METRO

CITY           SKY/WX    TMP DP  RH WIND       PRES   REMARKS
BWI AIRPORT    PTCLDY    71  67  87 W3        30.04F
MD SCIENCE CTR   N/A     81  66  60 MISG      30.04F
MARTIN STATE   CLEAR     73  72  94 CALM      30.06R
ANNAPOLIS      CLEAR     75  75 100 CALM      30.04S
FORT MEADE*    CLEAR     64  64 100 CALM      30.07S

$$

MDZ012-015-019>023-250400-
MARYLAND EASTERN SHORE

CITY           SKY/WX    TMP DP  RH WIND       PRES   REMARKS
OCEAN CITY     CLEAR     65  65 100 N3        30.04S
SALISBURY      CLEAR     66  65  96 CALM      30.03F
CAMBRIDGE*     CLEAR     68  66  94 CALM      30.04F
EASTON*        CLEAR     72  66  82 CALM      30.08S

$$

MDZ017>025-250400-
SOUTHERN MARYLAND

CITY           SKY/WX    TMP DP  RH WIND       PRES   REMARKS
PATUXENT RIVER CLEAR     66  66 100 CALM      30.04S
ST INIGOES     CLEAR     66  64  93 CALM      30.03S
LEONARDTOWN*   CLEAR     68  64  88 CALM      30.06S

$$

MDZ003>005-250400-
NORTH CENTRAL MARYLAND

CITY           SKY/WX    TMP DP  RH WIND       PRES   REMARKS
FREDERICK*     CLEAR     68  68 100 CALM      30.10S
HAGERSTOWN APT CLEAR     76  68  76 CALM      30.08S
WESTMINSTER*   CLEAR     73  68  83 CALM      30.09S

$$

MDZ501>502-250400-
WESTERN MARYLAND

CITY           SKY/WX    TMP DP  RH WIND       PRES   REMARKS
OAKLAND*       CLEAR     68  61  77 E8        30.18F
CUMBERLAND*    CLEAR     73  66  78 N5        30.14S

$$

VAZ025>031-250400-
SHENANDOAH VALLEY

CITY           SKY/WX    TMP DP  RH WIND       PRES   REMARKS
WINCHESTER*    CLEAR     64  63  94 CALM      30.09S
FRONT ROYAL*   CLEAR     68  64  88 CALM      30.08S
LURAY*         CLEAR     66  63  88 CALM      30.10S
NEW MARKET*    CLEAR     64  60  87 CALM      30.10S
STAUNTON*      CLEAR     65  60  86 CALM      30.13S
WAYNESBORO*    CLEAR     67  63  87 CALM      30.12S

$$

WVZ021-048>050-054>055-250400-
EASTERN WEST VIRGINIA PANHANDLE

CITY           SKY/WX    TMP DP  RH WIND       PRES   REMARKS
MARTINSBURG    CLEAR     69  64  84 CALM      30.07S
PETERSBURG*    CLEAR     66  64  92 CALM      30.12R

$$

VAZ036>039-050-250400-
CENTRAL FOOTHILLS

CITY           SKY/WX    TMP DP  RH WIND       PRES   REMARKS
CHARLOTTESVILL CLEAR     72  66  81 CALM      30.08S
CULPEPER*      CLEAR     68  67  97 N3        30.08S
ORANGE*        CLEAR     64  63  94 CALM      30.06S
GORDONSVILLE*  CLEAR     66  65  97 CALM      30.07S
WARRENTON*       N/A     63  59  88 CALM      30.06F FOG

$$

VAZ055>057-250400-
NORTH AND CENTRAL PIEDMONT

CITY           SKY/WX    TMP DP  RH WIND       PRES   REMARKS
FREDERICKSBRG* CLEAR     69  69 100 CALM      30.04S
STAFFORD*      CLEAR     65  65 100 CALM      30.09F

$$

NCZ024-NYZ072-PAZ021-071-VAZ022-071-250400-
OTHER REGIONAL OBSERVATIONS

CITY           SKY/WX    TMP DP  RH WIND       PRES   REMARKS
NEW YORK CITY  CLEAR     77  62  59 CALM      30.08S
PHILADELPHIA   CLEAR     74  67  78 S5        30.05F
PITTSBURGH     CLEAR     73  64  73 CALM      30.11S
ROANOKE        PTCLDY    72  63  73 CALM      30.12S
RICHMOND       PTCLDY    71  63  75 NW3       30.03F
RALEIGH        MOCLDY    70  60  70 NE6       30.02F

$$

ANZ530>537-250400-
MARINE OBSERVATIONS

STATION/POSITION TIME  TEMP    WIND        PRES
                       AIR SEA DIR/SP/G
                 (UTC) (F)     (DEG/KT/KT) (MB)
THOMAS PT LIGHT  0300   76 76   70/  2/  2   N/A
BALT KEY BRIDGE  0236   78     280/  3/  3 1017.3R
COVE POINT       0236   76     350/  1/  3 1017.9S
LEWISETTA        0236   74 79  310/  2/  2 1017.0S
SOLOMONS ISLAND  0236   74 77  320/  1/  2 1016.8F
PINEY POINT      0248           50/  3/  4   N/A

$$





USA.gov is the U.S. government's official web portal to all federal, state and local government web resources and services.